Location: *
(37.9500°N, 27.3666°E)
Time: 04:22:40
(UTC+00:00)

CZ-2D R/B - Pass Details

Date: 24 October 2021
Orbit: 519 x 537 km, 97.4° (Epoch: 03 December)

Event Time Altitude Azimuth Distance (km) Brightness Sun altitude
Rises 15:38:22 0° 150° (SSE) 2,659 6.6 -4.2°
Reaches altitude 10° 15:40:32 10° 143° (SE) 1,777 5.7 -4.6°
Maximum altitude 15:44:08 39° 73° (ENE) 808 3.7 -5.3°
Drops below altitude 10° 15:47:46 10° 4° (N) 1,798 5.8 -6.0°
Sets 15:49:58 0° 357° (N) 2,695 6.8 -6.4°
